一网星座-0173星 (ONEWEB-0173 )

导读

ONEWEB-0173是英国OneWeb低轨卫星星座的成员卫星,于2021年3月25日发射升空,隶属于英国主导的OneWeb全球互联网卫星组网项目。该卫星运行在近地轨道,属于OneWeb星座部署的组成部分,核心任务是参与构建全球卫星互联网,为偏远地区和基础设施薄弱区域提供宽带互联网接入服务,推动全球网络覆盖的普及。

基本信息
目录编号:
48069
目录名称:
ONEWEB-0173
国际标识:
2021-025AD
轨道中心:
EARTH
卫星名称:
一网星座-0173星
卫星全名:
一网星座-0173星 (ONEWEB-0173 )
卫星状态:
在轨 (已飞行1907 天)
发射日期:
2021-03-25 UTC
国别 :
英国 (GB)
星等 :
--
轨道信息
数据来源 国际轨道数据 AOE轨道数据
星历时间 2026-06-14T06:24:52+0800
11小时前
查看轨道信息
2026-06-12T06:00:00+0800
2天前
查看轨道信息
半长轴 7587.903km 7587.906km
偏心率 0.0001873 0.0001508
轨道倾角 87.895° 87.894°
近地点辐角 108.284° 105.563°
升交点赤经 320.870° 321.272°
平近点角 251.850° 81.368°
近地点 1208.344km 1208.624km
远地点 1211.188km 1210.914km
周期 109.633分钟 109.633分钟
每日圈数 13.1347 13.134691
详细信息
平衡模式:
三轴稳定
覆盖范围:
全球
运营商:
一网卫星公司
运营商所在国:
英国
制造商(研发单位):
一网卫星公司
制造商所在国:
英国
使用方式:
暂无
卫星简介
OneWeb卫星网络由648颗重约125公斤的微型卫星组成,运行在1200公里的轨道上。 每颗卫星都能够提供至少每秒8千兆位的吞吐量,以使用其高吞吐量的Ku频段有效载荷为家庭和移动平台提供互联网接入。该卫星仍在工作。
2D轨道图
3D轨道图
轨道高度分析图
轨道倾角分析图
轨道综合分析图
查看轨道综合分析图